| time (UTC) | temp F | wind direction | speed MPH | gust MPH | rain 1hr in | rain 24hr in | rain mn in | humidity % | barometer mb |
| 20260504050108 | 64 | 248 | 2.0 | 0.0 | 0.00 | 0.00 | 0.30 | 6 | |
| 20260504045108 | 64 | 293 | 0.0 | 0.0 | 0.00 | 0.00 | 0.30 | 6 | |
| 20260504044107 | 64 | 293 | 2.0 | 0.0 | 0.00 | 0.00 | 0.30 | 6 | |
| 20260504043107 | 63 | 225 | 0.0 | 0.0 | 0.00 | 0.00 | 0.30 | 6 | |
| 20260504042106 | 63 | 248 | 0.0 | 0.0 | 0.00 | 0.00 | 0.30 | 6 | |
| 20260504041107 | 63 | 225 | 0.0 | 0.0 | 0.00 | 0.00 | 0.30 | 6 | |
| 20260504040106 | 63 | 270 | 0.0 | 0.0 | 0.00 | 0.00 | 0.30 | 6 | |
| 20260504035107 | 63 | 225 | 0.0 | 0.0 | 0.00 | 0.00 | 0.30 | 6 | |
| 20260504034107 | 64 | 225 | 0.0 | 0.0 | 0.00 | 0.00 | 0.30 | 6 | |
| 20260504033108 | 64 | 225 | 0.0 | 0.0 | 0.00 | 0.00 | 0.30 | 6 | |
| 20260504032107 | 65 | 225 | 0.0 | 0.0 | 0.00 | 0.00 | 0.30 | 6 | |
| 20260504031107 | 66 | 225 | 0.0 | 0.0 | 0.00 | 0.00 | 0.30 | 6 | |
| 20260504030107 | 66 | 225 | 0.0 | 0.0 | 0.00 | 0.00 | 0.30 | 5 | |
| 20260504025106 | 66 | 225 | 0.0 | 0.0 | 0.00 | 0.00 | 0.30 | 5 | |
| 20260504024106 | 66 | 248 | 0.0 | 0.0 | 0.00 | 0.00 | 0.30 | 5 | |
| 20260504023107 | 67 | 248 | 0.0 | 0.0 | 0.00 | 0.00 | 0.30 | 5 | |
| 20260504022106 | 67 | 270 | 0.0 | 0.0 | 0.00 | 0.00 | 0.30 | 5 | |
| 20260504021106 | 68 | 225 | 0.0 | 0.0 | 0.00 | 0.00 | 0.30 | 5 | |
| 20260504020107 | 68 | 225 | 0.0 | 0.0 | 0.00 | 0.00 | 0.30 | 5 | |
| 20260504015107 | 69 | 225 | 0.0 | 0.0 | 0.00 | 0.00 | 0.30 | 5 | |
| 20260504014107 | 69 | 225 | 0.0 | 0.0 | 0.00 | 0.00 | 0.30 | 5 | |
| 20260504013108 | 70 | 248 | 0.0 | 0.0 | 0.00 | 0.00 | 0.30 | 5 | |
| 20260504012107 | 71 | 225 | 0.0 | 0.0 | 0.00 | 0.00 | 0.30 | 5 | |
| 20260504011107 | 71 | 270 | 1.0 | 0.0 | 0.00 | 0.00 | 0.30 | 5 | |
| 20260504010107 | 72 | 225 | 0.0 | 0.0 | 0.00 | 0.00 | 0.30 | 4 | |
| 20260504005107 | 72 | 270 | 0.0 | 0.0 | 0.00 | 0.00 | 0.30 | 4 | |
| 20260504004107 | 73 | 270 | 1.0 | 0.0 | 0.00 | 0.00 | 0.30 | 4 | |
| 20260504003107 | 73 | 270 | 1.0 | 0.0 | 0.00 | 0.00 | 0.30 | 4 | |
| 20260504002106 | 74 | 270 | 1.0 | 0.0 | 0.00 | 0.00 | 0.30 | 4 | |
| 20260504001107 | 74 | 293 | 1.0 | 0.0 | 0.00 | 0.00 | 0.30 | 4 | |
| 20260504000108 | 74 | 270 | 1.0 | 0.0 | 0.00 | 0.00 | 0.30 | 4 | |
| 20260503235106 | 75 | 270 | 1.0 | 0.0 | 0.00 | 0.00 | 0.30 | 4 | |
| 20260503234108 | 75 | 248 | 1.0 | 0.0 | 0.00 | 0.00 | 0.30 | 4 | |
| 20260503233106 | 75 | 270 | 1.0 | 0.0 | 0.00 | 0.00 | 0.30 | 4 | |
| 20260503232107 | 76 | 270 | 2.0 | 0.0 | 0.00 | 0.00 | 0.30 | 4 | |
| 20260503231106 | 77 | 203 | 1.0 | 0.0 | 0.00 | 0.00 | 0.30 | 4 | |
| 20260503230107 | 77 | 270 | 1.0 | 0.0 | 0.00 | 0.00 | 0.30 | 4 | |
| 20260503225107 | 77 | 0 | 2.0 | 0.0 | 0.00 | 0.00 | 0.30 | 4 | |
| 20260503224106 | 77 | 270 | 2.0 | 0.0 | 0.00 | 0.00 | 0.30 | 3 | |
| 20260503223108 | 78 | 270 | 4.0 | 0.0 | 0.00 | 0.00 | 0.30 | 4 | |
| 20260503222107 | 78 | 270 | 3.0 | 0.0 | 0.00 | 0.00 | 0.30 | 3 | |
| 20260503221107 | 79 | 270 | 3.0 | 0.0 | 0.00 | 0.00 | 0.30 | 4 | |
| 20260503220107 | 79 | 293 | 3.0 | 0.0 | 0.00 | 0.00 | 0.30 | 3 | |
| 20260503215107 | 80 | 248 | 2.0 | 0.0 | 0.00 | 0.00 | 0.30 | 4 | |
| 20260503214106 | 80 | 270 | 2.0 | 0.0 | 0.00 | 0.00 | 0.30 | 3 | |
| 20260503213106 | 81 | 270 | 2.0 | 0.0 | 0.00 | 0.00 | 0.30 | 3 | |
| 20260503212108 | 80 | 0 | 3.0 | 0.0 | 0.00 | 0.00 | 0.30 | 3 | |
| 20260503211107 | 80 | 270 | 4.0 | 0.0 | 0.00 | 0.00 | 0.30 | 3 | |
| 20260503210106 | 82 | 293 | 2.0 | 0.0 | 0.00 | 0.00 | 0.30 | 3 | |
| 20260503205107 | 83 | 315 | 2.0 | 0.0 | 0.00 | 0.00 | 0.30 | 3 | |
| 20260503204106 | 82 | 293 | 2.0 | 0.0 | 0.00 | 0.00 | 0.30 | 3 | |
| 20260503203106 | 83 | 293 | 3.0 | 0.0 | 0.00 | 0.00 | 0.30 | 3 | |
| 20260503202106 | 82 | 270 | 1.0 | 0.0 | 0.00 | 0.00 | 0.30 | 3 | |
| 20260503201106 | 82 | 270 | 2.0 | 0.0 | 0.00 | 0.00 | 0.30 | 3 | |
| 20260503200108 | 83 | 338 | 2.0 | 0.0 | 0.00 | 0.00 | 0.30 | 3 | |
| 20260503195108 | 83 | 270 | 1.0 | 0.0 | 0.00 | 0.00 | 0.30 | 3 | |
| 20260503194106 | 82 | 270 | 2.0 | 0.0 | 0.00 | 0.00 | 0.30 | 4 | |
| 20260503193106 | 82 | 203 | 2.0 | 0.0 | 0.00 | 0.00 | 0.30 | 3 | |
| 20260503192107 | 83 | 293 | 3.0 | 0.0 | 0.00 | 0.00 | 0.30 | 3 | |
| 20260503191107 | 82 | 270 | 3.0 | 0.0 | 0.00 | 0.00 | 0.30 | 3 | |
| 20260503190107 | 81 | 203 | 2.0 | 0.0 | 0.00 | 0.00 | 0.30 | 3 | |
| 20260503185107 | 81 | 270 | 2.0 | 0.0 | 0.00 | 0.00 | 0.30 | 3 | |
| 20260503184106 | 81 | 315 | 2.0 | 0.0 | 0.00 | 0.00 | 0.30 | 3 | |
| 20260503183107 | 81 | 225 | 0.0 | 0.0 | 0.00 | 0.00 | 0.30 | 3 | |
| 20260503182107 | 80 | 315 | 2.0 | 0.0 | 0.00 | 0.00 | 0.30 | 4 | |
| 20260503181107 | 79 | 293 | 2.0 | 0.0 | 0.00 | 0.00 | 0.30 | 4 | |
| 20260503180107 | 79 | 270 | 2.0 | 0.0 | 0.00 | 0.00 | 0.30 | 3 | |
| 20260503175107 | 78 | 338 | 0.0 | 0.0 | 0.00 | 0.00 | 0.30 | 4 | |
| 20260503174106 | 78 | 270 | 1.0 | 0.0 | 0.00 | 0.00 | 0.30 | 4 | |
| 20260503173106 | 78 | 248 | 0.0 | 0.0 | 0.00 | 0.00 | 0.30 | 4 | |
| 20260503172107 | 78 | 113 | 1.0 | 0.0 | 0.00 | 0.00 | 0.30 | 4 | |
| 20260503171107 | 77 | 270 | 3.0 | 0.0 | 0.00 | 0.00 | 0.30 | 4 | |
| 20260503170106 | 76 | 293 | 0.0 | 0.0 | 0.00 | 0.00 | 0.30 | 4 | |
| 20260503160106 | 73 | 293 | 2.0 | 0.0 | 0.00 | 0.00 | 0.30 | 4 | |
| 20260503150107 | 67 | 0 | 0.0 | 0.0 | 0.00 | 0.00 | 0.30 | 7 | |
| 20260503140107 | 60 | 203 | 0.0 | 0.0 | 0.00 | 0.00 | 0.30 | 8 | |
| 20260503131106 | 55 | 23 | 0.0 | 0.0 | 0.00 | 0.00 | 0.30 | 8 | |
| 20260503130106 | 54 | 135 | 0.0 | 0.0 | 0.00 | 0.00 | 0.30 | 9 | |
| 20260503120106 | 52 | 203 | 0.0 | 0.0 | 0.00 | 0.00 | 0.30 | 9 | |
| 20260503110106 | 52 | 180 | 0.0 | 0.0 | 0.00 | 0.00 | 0.30 | 9 | |
| 20260503100107 | 53 | 203 | 0.0 | 0.0 | 0.00 | 0.00 | 0.30 | 9 | |
| 20260503090107 | 53 | 203 | 0.0 | 0.0 | 0.00 | 0.00 | 0.30 | 9 | |
| 20260503081107 | 52 | 180 | 0.0 | 0.0 | 0.00 | 0.00 | 0.30 | 9 | |
| 20260503080108 | 53 | 203 | 0.0 | 0.0 | 0.00 | 0.00 | 0.30 | 9 | |
| 20260503072107 | 53 | 180 | 0.0 | 0.0 | 0.00 | 0.00 | 0.30 | 9 | |
| 20260503071107 | 53 | 180 | 0.0 | 0.0 | 0.00 | 0.00 | 0.30 | 9 | |
| 20260503070107 | 54 | 203 | 0.0 | 0.0 | 0.00 | 0.00 | 0.30 | 9 | |
| 20260503060107 | 55 | 225 | 0.0 | 0.0 | 0.00 | 0.00 | 0.30 | 8 | |
| 20260503055106 | 55 | 225 | 0.0 | 0.0 | 0.00 | 0.00 | 0.30 | 8 | |
| 20260503054106 | 56 | 225 | 0.0 | 0.0 | 0.00 | 0.00 | 0.30 | 8 | |
| 20260503053107 | 56 | 203 | 0.0 | 0.0 | 0.00 | 0.00 | 0.30 | 8 |